Home   Weather   Laatzen   Past weeks

Flag for Germany Past Weather in Laatzen, Lower Saxony, Germany — Yesterday and Last 2 Weeks

48 °F

Passing clouds.

Feels Like: 46 °F
Forecast: 39 / 49 °F
Wind: 6 mph from South

Location: Hannover

Current Time: Oct 23, 2016 at 11:49:45 AM

Latest Report: Oct 23, 2016 at 11:20 AM

Visibility: N/A

Pressure: 29.98 "Hg

Humidity: 76%

Dew Point: 41 °F

Location of LaatzenLocation

Past Weather in Laatzen — Graph


Laatzen Temperature Yesterday

Maximum temperature yesterday: 48 °F (at 2:50 PM)
Minimum temperature yesterday: 39 °F (at 10:50 PM)
Average temperature yesterday: 44 °F

High & Low Weather Summary for the Past Weeks

High63 °F (Oct 16, 1:20 PM)100% (Oct 9, 12:50 AM)30.27 "Hg (Oct 9, 12:50 AM)
Low32 °F (Oct 9, 5:20 AM)52% (Oct 16, 3:20 PM)29.74 "Hg (Oct 15, 5:20 AM)
Average47 °F89%30.06 "Hg
* Reported Oct 8 10:20 AM — Oct 23 10:20 AM, Laatzen, Weather by CustomWeather, © 2016

Note: Actual official high and low records may vary slightly from our data, if they occured in-between our weather recording intervals... More about our weather records


Laatzen Weather History for the Previous 24 Hours

Scroll right to see more
Time TempWeatherWind HumidityBarometerVisibility
10:20 AM
Sun, Oct 23
37 °FFog.2 mph100%29.98 "Hg1 mi
9:50 AM34 °FFog.3 mph100%29.98 "Hg0 mi
9:20 AM34 °FFog.3 mph100%29.98 "Hg0 mi
8:50 AM32 °FFog.3 mph100%29.98 "Hg0 mi
8:20 AM32 °FFog.3 mph100%29.95 "Hg0 mi
7:50 AM32 °FFog.3 mph100%29.95 "Hg0 mi
7:20 AM34 °FChilly.2 mph100%29.95 "Hg1 mi
6:50 AM36 °FChilly.2 mph100%29.95 "Hg1 mi
6:20 AM34 °FChilly.2 mph100%29.95 "Hg1 mi
5:50 AM34 °FChilly.1 mph100%29.95 "Hg1 mi
5:20 AM34 °FChilly.1 mph100%29.95 "Hg1 mi
4:50 AM36 °FChilly.2 mph93%29.95 "Hg1 mi
4:20 AM36 °FChilly.2 mph100%29.95 "Hg1 mi
3:50 AM36 °FFog.3 mph93%29.95 "Hg1 mi
3:20 AM36 °FFog.6 mph100%29.98 "Hg1 mi
2:50 AM37 °FFog.5 mph100%29.98 "Hg1 mi
2:20 AM36 °FFog.5 mph100%29.98 "Hg1 mi
1:50 AM36 °FFog.3 mph93%29.98 "Hg1 mi
1:20 AM36 °FFog.2 mph100%29.98 "Hg1 mi
12:50 AM37 °FChilly.1 mph100%29.98 "Hg1 mi
12:20 AM39 °FChilly.1 mph93%29.98 "Hg1 mi
11:50 PM
Sat, Oct 22
39 °FChilly.2 mph100%29.98 "Hg2 mi
11:20 PM41 °FQuite cool.2 mph93%29.98 "Hg1 mi
10:50 PM39 °FChilly.2 mph100%29.98 "Hg1 mi
10:20 PM41 °FQuite cool.2 mph100%29.98 "Hg3 mi
9:50 PM41 °FQuite cool.2 mph100%29.98 "Hg1 mi
9:20 PM43 °FQuite cool.1 mph93%29.98 "Hg2 mi
8:50 PM45 °FPassing clouds.2 mph93%29.95 "HgN/A
8:20 PM45 °FPassing clouds.5 mph93%29.95 "HgN/A
7:50 PM45 °FPassing clouds.3 mph93%29.95 "HgN/A
7:20 PM45 °FPassing clouds.2 mph93%29.95 "HgN/A
6:50 PM45 °FPassing clouds.1 mph93%29.95 "HgN/A
6:20 PM45 °FPassing clouds.2 mph93%29.95 "HgN/A
5:50 PM46 °FPartly sunny.2 mph87%29.95 "HgN/A
5:20 PM46 °FPartly sunny.2 mph87%29.95 "HgN/A
4:50 PM46 °FPartly sunny.2 mph82%29.95 "HgN/A
4:20 PM46 °FPartly sunny.2 mph82%29.95 "HgN/A
3:50 PM46 °FPartly sunny.3 mph82%29.95 "HgN/A
3:20 PM48 °FPartly sunny.5 mph76%29.95 "HgN/A
2:50 PM48 °FBroken clouds.5 mph82%29.95 "HgN/A
2:20 PM46 °FBroken clouds.5 mph87%29.95 "HgN/A
1:50 PM46 °FPartly sunny.5 mph87%29.95 "HgN/A
1:20 PM46 °FBroken clouds.3 mph87%29.92 "HgN/A
12:50 PM46 °FBroken clouds.3 mph87%29.95 "HgN/A
12:20 PM45 °FBroken clouds.3 mph93%29.95 "Hg6 mi
11:50 AM45 °FBroken clouds.5 mph93%29.92 "Hg6 mi
11:20 AM45 °FPartly sunny.5 mph93%29.92 "Hg6 mi
Weather by CustomWeather, © 2016

See weather overviewHow to use our weather pages